Location: Abraham Lincoln Continuation High School
(33.9711°N, 117.3662°W)
Time: 10:49:54
(UTC+00:00)

Cosmos 1680 Rocket - Pass Details

Date: 23 January 2021
Orbit: 760 x 780 km, 74.1° (Epoch: 25 February)

Event Time Altitude Azimuth Distance (km) Brightness Sun altitude
Rises 03:11:17 0° 338° (NNW) 3,236 6.9 -24.9°
Reaches altitude 10° 03:13:41 10° 334° (NNW) 2,303 6.2 -25.4°
Maximum altitude 03:18:48 58° 257° (WSW) 883 4.0 -26.4°
Drops below altitude 10° 03:23:53 10° 178° (S) 2,283 6.0 -27.5°
Sets 03:26:16 0° 175° (S) 3,204 6.7 -28.0°
